2020-081J (46913 NORAD) Tracking and Keplerian Element Data

This shows tracking and keplerian element data for the satellite.

Feedback or suggestion? Click here.




ElementValue
Catalog46913
Name2020-081J
Epoch Orbit206
Epoch Day330.75462002
Epoch Year2020
RAAN351.167
Inclination36.9051
Eccentricity0.0009317
Argument of Perigee134.6877
Mean Anonmoly225.4638
Mean Motion14.99450771
Decay Rate-3.88E-06
L11 46913U 20081J 20330.75462002 -.00000388 00000-0 -24774-4 0 9997
L22 46913 36.9051 351.1670 0009317 134.6877 225.4638 14.99450771 2063

Live tracking and technical data element details for 2020-081J (NORAD 46913). 2020-081J can be tracked NOW for your location showing map with azimuth and elevation plus other details from your city location.

Track the satellite on the map from your city or location and see movement details for azimuth, elevation, latitude, longitude, range, height, and movement on the map or in text.







IsCatalogInMostPopularTable: catalog: 46913, numindb: 1
Update: records affected: 1



GetName: 46913 2020-081J

Hit Count: updated at: Thu, 26 Nov 2020 18:47:01 GMT